SCP
2 2 2 1 1 0 0 0 0 0 0 0 0 0 0 0 0 0 0 1 1 1 1 1 1 1 1 1 1 1 1 1 1 1 1 1 1 1 1 1 0 0 0 0 0 0 0 0 0
1 2 1 1 1 0 0 0 0 0 0 0 0 0 0 0 0 0 0 1 1 1 1 1 1 1 1 1 1 1 1 1 1 1 1 1 1 1 1 1 1 0 0 0 0 0 0 0 0
1 1 1 1 0 0 0 0 0 0 0 0 0 0 0 0 0 0 1 1 1 1 1 1 1 1 1 1 1 1 1 1 1 1 1 1 1 1 1 1 1 0 0 0 0 0 0 0 0
1 1 1 0 0 0 0 0 0 0 0 0 0 0 0 0 0 0 1 1 1 1 1 1 2 2 1 1 1 1 1 1 1 1 1 1 1 1 1 1 1 0 0 0 0 0 0 0 0
1 1 1 0 0 0 0 0 0 0 0 0 1 1 0 0 0 1 1 1 1 1 1 1 1 2 2 2 2 2 2 2 2 1 1 1 1 1 1 1 1 1 0 0 0 0 0 0 0
1 1 0 0 0 0 0 0 0 0 1 1 1 1 1 1 1 1 1 1 1 1 1 1 1 1 1 1 1 2 2 2 1 1 1 1 1 1 1 1 1 1 1 1 0 0 0 0 0
1 0 0 0 0 0 0 0 0 0 1 1 1 1 1 1 1 1 1 1 1 1 1 1 1 1 1 1 1 1 1 1 1 1 1 1 1 1 1 1 1 1 1 1 1 0 0 0 0
0 0 0 0 0 0 0 0 0 1 1 1 1 1 1 1 1 1 1 1 1 1 1 1 1 1 1 1 1 1 1 1 1 1 1 1 1 1 1 1 1 1 1 1 1 1 1 0 0
0 0 0 0 0 0 0 0 0 1 1 1 1 1 1 1 1 1 1 1 1 1 1 1 1 1 1 1 1 1 1 1 1 1 1 1 1 1 1 1 1 1 1 1 1 1 1 1 1
0 0 0 0 0 0 0 0 0 1 1 1 1 1 1 1 1 1 1 1 1 1 0 1 1 1 1 1 1 1 1 1 1 1 1 1 1 1 1 1 1 1 1 1 1 1 1 1 1
0 0 0 0 0 0 0 0 0 1 1 1 1 2 1 1 1 1 1 1 1 1 0 1 1 1 1 1 1 1 1 1 0 0 1 1 1 1 1 1 1 1 1 1 1 1 1 1 1
0 0 0 0 0 0 0 0 0 1 1 1 1 2 2 2 2 2 2 1 1 1 1 1 1 0 0 1 1 1 0 0 0 0 1 1 1 1 1 1 1 1 1 1 1 1 1 1 1
0 1 1 1 0 0 0 0 0 1 1 1 1 1 1 2 3 3 2 2 2 2 1 1 1 0 0 0 0 0 0 0 0 0 0 1 1 1 1 1 1 1 1 1 1 1 1 1 1
0 1 1 1 1 0 0 0 1 1 1 1 1 1 1 2 3 3 2 2 2 2 1 1 0 0 0 0 0 0 0 0 0 0 0 0 1 1 1 1 1 1 1 1 1 1 1 1 1
0 1 1 1 1 1 0 0 1 1 1 1 1 1 2 2 2 2 2 2 1 1 1 0 0 0 0 0 0 0 0 0 0 0 0 0 0 1 1 1 1 1 1 1 1 1 1 1 1
1 0 1 1 1 1 1 1 1 1 1 2 2 2 2 2 2 2 2 1 1 0 0 0 0 0 0 0 0 0 0 0 0 0 0 0 0 0 0 1 1 1 1 1 1 1 1 1 1
1 0 0 1 1 1 1 1 1 2 2 2 2 2 3 3 2 2 1 1 0 0 0 0 0 0 0 0 0 0 0 0 0 0 0 0 0 0 0 0 1 1 1 1 1 1 1 1 1
0 0 0 1 1 1 1 1 1 2 2 2 2 2 3 4 3 2 1 1 0 0 0 0 0 0 0 0 0 0 0 0 0 0 0 0 0 0 0 0 1 1 1 1 1 1 1 1 1
0 0 0 0 1 0 0 1 1 2 2 2 2 2 3 4 3 2 1 1 0 0 0 0 0 0 0 0 0 0 0 0 0 0 0 0 0 0 0 0 1 1 1 1 1 1 1 1 1
0 0 0 0 0 0 0 0 1 2 2 2 1 1 2 3 3 2 1 1 0 0 0 0 0 0 0 0 0 0 0 0 0 0 0 0 0 0 0 0 1 1 1 1 1 1 1 1 1
0 0 0 0 0 0 0 0 1 2 2 1 1 1 1 2 2 2 1 1 0 0 0 0 0 0 0 0 0 0 0 0 0 0 0 0 0 0 0 0 0 1 1 1 1 1 1 2 2
0 0 0 0 0 0 0 0 1 1 1 0 0 0 0 1 1 1 1 0 0 0 0 0 0 0 0 0 0 0 0 0 0 0 0 0 0 0 0 0 0 0 1 1 1 1 1 2 2
0 0 0 0 0 0 0 0 0 0 0 0 0 0 0 0 1 1 0 0 0 0 0 0 0 0 0 0 0 0 0 0 0 0 0 0 0 0 0 0 0 0 0 1 1 1 1 1 2
0 0 0 0 0 0 0 0 0 0 0 0 0 0 0 0 0 0 0 0 0 0 0 0 0 0 0 0 0 0 0 0 0 0 0 0 0 0 0 0 0 0 0 0 1 1 1 1 2
0 0 0 0 0 0 0 0 0 0 0 0 0 0 0 0 0 0 0 0 0 0 0 0 0 0 0 0 0 0 0 0 0 0 0 0 0 0 0 0 0 0 0 0 0 1 1 1 1
0 0 0 0 0 0 0 0 0 0 0 0 0 0 0 0 0 0 0 0 0 0 0 0 0 0 0 0 0 0 0 0 0 0 0 0 0 0 0 0 0 0 0 0 0 0 1 1 1
0 0 0 0 0 0 0 0 0 0 0 0 0 0 0 0 0 0 0 0 0 0 0 0 0 0 0 0 0 0 0 0 0 0 0 0 0 0 0 0 0 0 0 0 0 0 1 1 1
0 0 0 0 0 0 0 0 0 0 0 0 0 0 0 0 0 0 0 0 0 0 0 0 0 0 0 0 0 0 0 0 0 0 0 0 0 0 0 0 0 0 0 0 0 0 1 1 1
0 0 0 0 0 0 0 0 0 0 0 0 0 0 0 0 0 0 0 0 0 0 0 0 0 0 0 0 0 0 0 0 0 0 0 0 0 0 0 0 0 0 0 0 0 1 1 1 1
0 0 0 0 0 0 0 0 0 0 0 0 0 0 0 0 0 0 0 0 0 0 0 0 0 0 0 0 0 0 0 0 0 0 0 0 0 0 0 0 0 0 0 0 0 0 1 1 1
Wind_Speed
8 9 6 2 2 1 6 7 8 8 8 9 9 10 13 13 9 6 1 5 7 9 10 9 7 6 5 4 4 3 3 3 3 3 4 4 4 4 4 4 3 3 3 3 3 3 4 4 4
8 6 4 3 1 2 6 7 7 8 8 6 7 11 12 11 10 7 3 5 8 9 9 9 8 6 5 5 4 4 4 4 4 4 4 4 4 4 4 4 4 4 3 3 2 2 2 3 3
11 8 4 2 2 5 6 6 5 7 8 7 7 11 9 7 8 5 4 6 8 9 9 9 8 7 6 5 5 4 4 4 4 4 5 5 4 4 4 5 5 5 4 3 2 2 2 2 2
6 4 3 1 6 9 8 6 5 6 7 7 7 9 8 8 5 5 6 7 8 8 8 9 8 7 6 5 5 4 4 4 4 5 5 5 5 5 5 5 5 5 5 4 3 2 2 2 2
5 3 1 1 6 7 7 7 7 7 7 9 10 10 9 8 8 7 6 6 7 6 6 7 7 6 5 4 4 4 4 4 4 5 5 6 6 6 6 6 6 6 6 5 4 4 4 3 3
3 2 1 1 5 6 6 6 7 7 7 8 7 9 7 7 7 5 5 5 6 5 5 5 6 5 4 3 3 3 4 4 4 4 5 5 6 7 7 7 7 7 7 6 6 5 5 5 4
4 4 2 2 5 5 5 6 7 6 8 8 6 7 8 8 5 4 5 5 5 5 4 2 3 3 3 2 2 1 2 3 5 6 6 7 7 8 9 9 9 8 8 8 8 7 6 6 6
4 4 4 4 4 4 4 5 6 7 7 8 7 6 6 6 4 4 4 4 5 4 3 2 2 1 1 2 4 2 3 4 5 7 8 8 8 9 10 10 10 10 10 9 8 8 8 8 8
4 2 3 5 4 4 3 3 5 5 7 8 10 10 8 6 4 3 2 3 4 4 4 3 3 3 1 1 1 3 5 5 6 7 8 8 5 5 6 9 10 11 10 10 9 9 9 9 9
3 1 4 4 5 4 4 4 3 3 5 6 9 9 7 5 3 2 3 4 4 4 5 4 4 4 4 4 2 1 2 1 3 3 3 3 3 3 5 5 9 11 11 10 11 11 9 8 5
1 1 2 3 4 3 2 2 2 2 2 3 6 7 5 4 3 3 4 3 2 3 4 4 4 4 3 2 2 2 2 2 3 3 4 3 2 2 3 2 4 5 7 5 6 7 6 6 5
1 2 2 2 3 2 2 1 2 2 3 6 6 5 4 2 2 2 2 2 2 3 3 4 5 5 5 4 3 3 2 2 2 3 4 3 2 2 2 2 2 2 2 4 4 3 5 7 7
3 3 1 2 1 1 1 1 1 0 3 4 5 3 2 2 1 2 2 3 3 4 4 4 4 5 5 4 3 4 3 2 3 2 3 4 3 3 2 2 2 3 2 3 4 4 5 6 6
1 1 3 4 4 3 4 4 5 4 5 4 5 5 3 2 1 2 3 4 4 5 5 4 5 4 5 4 4 4 3 3 3 2 3 5 3 3 3 2 2 3 3 3 3 4 5 4 4
4 6 6 7 6 4 4 7 7 7 7 6 5 5 3 1 0 0 3 3 4 5 5 5 5 5 5 5 5 4 3 3 3 3 4 5 4 4 3 3 3 3 3 3 3 4 3 4 4
10 9 7 7 7 4 3 6 4 9 8 6 5 3 4 3 2 1 4 3 4 4 4 4 6 6 6 5 4 4 4 4 3 3 3 5 5 5 3 3 3 3 3 2 3 3 3 3 3
7 6 6 4 9 4 6 6 3 8 8 6 5 4 5 5 3 2 4 4 3 3 4 5 5 5 5 5 4 4 4 4 3 3 3 4 5 6 4 3 3 3 3 2 3 3 3 3 3
4 5 7 5 5 5 7 8 6 8 8 5 5 5 5 4 3 4 5 3 2 3 5 5 5 5 5 4 4 3 4 4 4 3 3 4 4 5 5 4 4 4 2 2 3 3 3 2 3
7 9 9 4 2 4 8 9 5 5 7 6 4 4 3 2 3 5 5 2 3 4 5 5 5 5 3 3 3 3 3 4 4 3 4 5 4 5 5 4 4 4 3 3 3 3 3 2 2
10 11 10 4 1 5 9 11 6 3 4 3 1 2 1 2 2 5 4 3 3 3 4 4 4 4 3 2 3 3 3 3 3 3 4 4 5 4 5 4 3 3 3 4 3 3 2 2 3
10 8 7 8 9 10 10 9 3 7 5 4 2 1 2 2 2 3 4 3 3 3 4 4 4 4 4 4 2 3 3 3 3 4 3 4 5 4 4 4 4 4 3 3 4 3 3 3 3
7 4 6 9 9 8 6 5 3 9 7 6 4 3 2 3 2 3 3 3 2 3 3 4 4 5 5 5 3 4 3 3 4 4 3 5 5 4 4 4 4 4 3 3 4 3 3 3 3
3 4 8 10 10 11 10 7 3 8 5 5 5 4 3 3 2 2 3 3 3 3 3 3 4 4 5 5 4 3 3 3 3 4 5 5 4 4 5 3 3 3 3 3 4 3 3 3 3
3 8 12 11 8 9 5 2 2 4 6 5 5 5 4 3 2 3 3 4 2 2 2 2 3 3 4 4 5 4 5 5 5 5 5 5 4 4 5 4 3 3 3 3 3 3 4 3 4
7 8 6 5 6 3 5 1 4 9 7 5 4 4 4 3 3 2 2 3 2 1 2 2 3 3 4 5 5 5 5 5 5 5 5 5 4 4 5 5 3 3 3 3 3 3 3 4 4
6 7 6 6 5 4 2 3 8 9 6 4 3 4 2 1 3 2 2 2 1 1 1 2 3 3 4 4 4 4 5 4 3 5 5 4 4 4 5 5 4 3 3 4 3 3 3 3 3
6 5 3 5 10 8 3 7 9 7 6 4 3 3 3 2 3 3 3 2 1 1 0 1 2 3 4 4 4 4 4 4 5 5 5 4 4 5 6 5 5 3 2 3 3 2 3 3 3
6 7 4 5 5 6 3 3 6 5 4 2 1 1 2 3 2 3 3 2 1 1 1 0 1 2 2 3 4 4 4 4 5 5 5 5 5 5 6 6 5 4 3 3 3 3 3 3 3
8 7 5 4 5 3 4 4 6 5 4 2 2 2 2 2 2 2 3 3 1 0 0 0 1 1 2 3 4 4 4 4 4 5 5 5 5 5 5 5 5 5 4 3 3 2 2 3 3
4 6 6 4 4 3 3 2 5 5 3 1 2 2 2 2 2 2 3 2 2 1 1 1 1 2 2 2 3 4 4 4 4 5 5 6 5 5 5 5 5 5 5 4 3 4 3 2 2
Wind_Direction
215 226 224 237 252 254 58 56 49 32 36 37 36 55 65 52 43 73 44 32 73 89 100 97 77 65 53 43 30 14 5 353 343 338 334 330 319 310 311 311 313 323 330 336 347 358 5 17 19
241 230 234 230 266 63 67 58 51 48 33 29 46 57 67 59 58 80 51 44 69 80 85 87 81 64 48 32 19 12 3 348 333 324 318 311 303 303 303 302 302 305 310 312 323 338 353 6 4
254 244 251 239 28 64 66 57 52 64 48 39 56 59 53 49 51 62 42 57 69 71 79 84 79 67 51 36 23 10 356 340 328 320 314 306 294 288 288 288 288 295 292 292 295 308 326 330 336
243 238 250 288 63 62 63 61 51 58 61 50 64 73 68 49 58 67 56 58 68 74 81 88 80 70 59 43 26 10 360 346 330 317 309 302 290 279 274 272 272 275 278 276 271 271 283 293 300
239 252 292 26 67 69 58 48 58 60 51 54 69 88 85 74 78 73 69 68 71 79 88 97 95 84 70 55 35 14 358 344 331 317 306 295 287 281 274 263 262 265 266 264 263 258 260 270 276
265 255 292 74 80 73 63 47 46 61 62 57 81 98 91 93 86 85 85 81 76 77 87 105 119 118 105 85 58 31 8 346 325 310 300 293 283 276 272 265 259 257 257 259 258 252 251 253 260
276 286 311 65 88 67 59 49 43 44 46 39 48 93 105 93 97 102 90 84 77 69 65 74 117 137 142 134 117 67 344 321 309 295 286 280 277 268 260 256 252 252 251 253 251 245 243 244 248
283 296 349 19 65 79 65 60 50 41 57 47 37 77 105 105 110 96 88 77 70 62 50 41 41 91 146 187 166 204 248 264 277 279 273 268 266 262 253 251 249 248 246 247 248 243 239 238 241
261 306 8 20 32 67 65 61 76 75 75 74 71 76 100 120 130 115 89 72 57 45 39 20 7 18 359 311 170 217 244 240 254 265 259 258 258 261 247 238 240 241 241 240 241 241 239 236 236
235 339 29 19 23 64 58 40 34 107 99 101 102 106 124 143 125 84 59 53 42 35 31 8 6 358 357 349 1 313 314 267 264 281 273 252 257 265 272 253 243 238 239 240 237 237 237 233 234
297 8 55 47 32 33 56 57 2 15 68 101 120 126 133 133 109 65 51 43 34 42 38 359 2 354 353 348 360 334 305 305 303 309 309 294 280 270 268 257 239 230 233 235 235 228 226 225 229
275 48 353 67 52 342 5 1 23 29 63 82 102 123 136 142 102 93 69 41 29 45 40 12 9 353 350 358 354 309 324 332 316 314 321 313 293 272 270 259 253 234 219 218 222 219 222 228 236
238 150 197 105 164 271 291 279 309 188 115 114 120 143 167 117 39 43 70 35 17 30 30 31 13 359 349 350 331 343 344 334 313 309 304 298 290 279 271 262 252 249 243 224 223 219 229 231 242
346 205 203 192 191 227 249 242 221 193 165 178 182 194 184 115 49 360 39 26 8 19 11 23 9 357 349 352 353 343 331 307 302 319 306 299 296 293 289 275 261 254 250 240 230 223 225 223 231
242 236 218 205 209 206 261 259 222 170 178 204 210 204 150 142 236 302 65 24 18 16 3 9 351 4 358 358 357 332 306 319 326 316 309 313 310 300 293 289 273 252 251 252 249 252 240 226 224
246 250 245 198 203 183 240 292 150 156 181 206 219 205 158 174 229 46 65 34 26 5 356 3 2 5 2 0 340 321 327 336 317 314 318 323 321 312 305 292 279 265 257 251 247 244 250 236 229
245 265 282 213 190 188 231 279 189 169 188 205 213 210 188 180 189 127 83 43 15 353 3 15 17 6 6 349 338 339 338 329 318 322 326 324 324 321 317 301 283 272 254 243 251 237 231 235 232
278 287 288 279 174 218 256 267 241 189 183 208 222 219 203 180 164 120 93 60 7 18 17 18 10 8 3 357 345 340 331 330 323 325 320 326 323 321 315 296 293 290 268 252 250 255 236 228 224
292 285 289 293 141 263 286 286 258 196 172 195 223 232 220 144 122 109 97 72 33 34 24 12 7 5 4 5 335 330 326 329 317 319 328 332 325 318 306 298 296 294 280 265 253 250 241 235 215
262 278 295 323 24 297 293 289 271 169 156 157 261 297 358 97 94 100 94 69 41 38 36 7 4 353 3 350 327 323 327 313 310 328 326 322 313 306 305 306 303 298 286 275 263 251 238 240 210
263 282 313 322 313 281 271 275 202 126 127 137 175 76 27 76 51 67 75 62 41 35 43 3 353 356 357 347 350 339 331 319 332 325 319 311 307 304 300 304 299 295 289 274 263 246 232 234 231
276 349 318 303 299 297 290 293 182 141 153 159 150 133 113 92 80 88 84 68 32 45 44 4 5 359 359 353 355 336 324 321 320 319 314 315 315 312 305 292 284 279 276 273 267 251 233 224 229
305 320 290 285 283 281 266 265 142 140 145 131 123 116 106 106 98 94 98 83 40 44 38 3 356 359 354 342 335 319 326 316 313 320 322 322 315 313 308 293 282 276 272 272 266 267 247 228 223
300 276 263 251 258 262 240 270 98 100 82 87 100 110 111 102 96 84 88 94 66 47 28 352 357 352 341 340 334 340 337 330 326 331 328 323 318 314 315 312 302 286 279 277 270 257 256 244 237
242 270 277 250 220 222 111 186 81 86 73 64 66 79 83 100 102 94 81 94 85 56 16 342 355 350 345 343 340 343 344 338 335 338 324 321 322 322 323 324 312 295 288 287 278 260 256 252 243
241 266 291 309 315 336 188 157 100 99 93 90 104 105 104 135 125 132 125 111 108 72 21 345 356 347 344 342 344 338 347 343 338 333 324 323 319 315 318 318 310 296 285 285 280 265 256 250 243
274 258 310 309 289 283 227 124 119 123 138 150 162 153 172 161 148 151 142 136 136 123 49 351 348 341 345 344 335 338 348 346 341 335 330 325 324 328 329 323 318 305 290 284 274 265 264 255 243
279 321 308 274 301 304 296 112 115 129 107 107 164 161 141 141 142 140 138 134 129 141 169 317 318 326 342 346 338 351 354 351 340 332 331 336 337 333 331 334 331 327 320 297 278 269 265 263 250
205 229 244 273 279 291 331 52 79 85 72 34 13 51 77 112 132 137 130 128 136 200 193 233 317 354 16 0 345 355 355 345 345 340 338 341 335 337 335 337 340 341 341 332 323 303 277 258 255
264 262 269 271 297 300 288 99 105 104 108 107 62 62 74 106 128 138 134 144 151 194 308 324 8 21 28 11 357 358 345 352 356 346 342 340 342 346 344 348 350 349 352 345 338 325 320 298 277